Simultaneous Nadir Overpasses (SNOs) Predictions

Prediction of SNOs between AURA and NPP Satellite Orbit:

Table of predicted SNOs for the next 14.0 days since TLE Epoch: 4/23/2016
Index Date (AURA) Time (AURA) Lat,Lon (AURA) SZA (AURA ) Date (NPP) Time (NPP) Lat,Lon (NPP) SZA (NPP ) Distance(km) Time Diff (sec)
1 04/25/2016 02:52:21 79.29, 32.23 79.55 04/25/2016 02:51:54 79.30, 32.36 79.54 2.75 27
2 04/25/2016 03:41:43 -79.49,-158.79 100.76 04/25/2016 03:42:34 -79.48,-158.86 100.78 1.61 51
3 04/27/2016 18:20:31 -76.24, -33.24 97.48 04/27/2016 18:19:17 -76.41, -34.15 97.32 30.97 74
4 04/27/2016 19:08:46 79.36, 148.56 78.59 04/27/2016 19:08:48 79.36, 148.58 78.59 0.43 2
5 04/30/2016 10:35:51 -79.15, 95.51 101.95 04/30/2016 10:35:04 -79.16, 95.56 101.92 1.23 47
6 04/30/2016 11:25:10 79.41, -95.17 77.68 04/30/2016 11:25:41 79.41, -95.21 77.66 0.89 31
7 05/03/2016 02:52:14 -79.28,-147.78 102.93 05/03/2016 02:51:56 -79.28,-147.74 102.92 0.72 18
8 05/03/2016 03:41:34 79.50, 21.31 76.75 05/03/2016 03:42:34 79.50, 21.26 76.72 1.09 60
9 05/05/2016 18:19:18 79.07, 159.16 76.62 05/05/2016 18:18:12 79.07, 159.17 76.67 0.30 66




NCC Satellite Simultaneous Nadir Overpasses (SNOs) Prediction Service
